AirNav  
 
 341 users online  

3AU Augusta Municipal Airport
Augusta, Kansas, USA

GOING TO AUGUSTA?


FAA INFORMATION EFFECTIVE 04 JANUARY 2018

Location

FAA Identifier: 3AU
Lat/Long: 37-40-17.9000N / 097-04-40.3000W
37-40.298333N / 097-04.671667W
37.6716389 / -97.0778611
(estimated)
Elevation: 1328 ft. / 404.8 m (surveyed)
Variation: 04E (2010)
From city: 5 miles W of AUGUSTA, KS
Time zone: UTC -6 (UTC -5 during Daylight Saving Time)
Zip code: 67010

Airport Operations

Airport use: Open to the public
Control tower: no
ARTCC: KANSAS CITY CENTER
FSS: WICHITA FLIGHT SERVICE STATION
NOTAMs facility: ICT (NOTAM-D service available)
Attendance: 0600-2200
Wind indicator: no
Segmented circle: yes
Lights: ACTVT HIRL RY 18/36; REIL RYS 18 & 36; VASI RY 36; PAPI RY 18 - CTAF.
Beacon: white-green (lighted land airport)
Operates sunset to sunrise.

Airport Communications

CTAF/UNICOM: 122.8
WX AWOS-3PT: 124.175 (316-733-6696)
WICHITA APPROACH: 134.8
WICHITA DEPARTURE: 134.8
CLEARANCE DELIVERY: 125.0
WX AWOS-3 at 1K1 (6 nm N): 118.3 (316-530-6004)
WX AWOS-3PT at BEC (7 nm W): 119.45 (316-515-7116)
WX ASOS at AAO (8 nm NW): 134.025 (316-636-2541)
WX AWOS-3P at EQA (14 nm NE): 120.875 (316-322-8095)
WX ASOS at ICT (17 nm W): PHONE 316-945-8022

Nearby radio navigation aids

VOR radial/distance  VOR name  Freq  Var
ICTr093/24.4WICHITA VORTAC113.8007E

 
NDB name  Hdg/Dist  Freq  Var  ID
NEWTON153/25.328106EEWK . .-- -.-

Airport Services

Fuel available: 100LL JET-A
SELF SERVE 100 LL; JET A IS FULL SERVICE.
Parking: hangars and tiedowns
Airframe service: MAJOR
Powerplant service: MAJOR
Bottled oxygen: LOW
Bulk oxygen: NONE

Runway Information

Runway 18/36

Dimensions: 4201 x 60 ft. / 1280 x 18 m
Surface: asphalt, in good condition
Weight bearing capacity: 
Single wheel: 12.0
Runway edge lights: high intensity
RUNWAY 18  RUNWAY 36
Latitude: 37-40.642790N37-39.952533N
Longitude: 097-04.639873W097-04.703435W
Elevation: 1328.0 ft.1306.4 ft.
Gradient: 0.4%0.4%
Traffic pattern: leftright
Runway heading: 180 magnetic, 184 true000 magnetic, 004 true
Markings: nonprecision, in good conditionnonprecision, in good condition
Visual slope indicator: 4-light PAPI on left2-box VASI on left (3.00 degrees glide path)
Runway end identifier lights: yesyes
Touchdown point: yes, no lightsyes, no lights
Obstructions: 38 ft. tree, 984 ft. from runway, 165 ft. right of centerline, 20:1 slope to clearnone

Airport Ownership and Management from official FAA records

Ownership: Publicly-owned
Owner: CITY OF AUGUSTA
113 EAST 6TH AVE., BOX 489
AUGUSTA, KS 67010
Phone 316-775-4510
Manager: CODY SIMS
113 EAST 6TH AVE, PO BOX 489
AUGUSTA, KS 67010
Phone (316) 775-4505
ASSISTANT CITY MANAGER

Airport Operational Statistics

Aircraft based on the field: 110
Single engine airplanes: 89
Multi engine airplanes: 17
Jet airplanes: 1
Helicopters: 3
    
Aircraft operations: avg 99/day *
58% local general aviation
42% transient general aviation
* for 12-month period ending 02 November 2017

Additional Remarks

FOR SVC AFT HRS CALL (316)-733-1326.
PAEW MOWING SUMMER MONTHS.
RY ENDS LINE OF SITE OBSTRUCTED BY TERRAIN
CALM WIND RUNWAY IS RUNWAY 18
AIRPORT LINE OFFICE PHONE 316-733 1326

Instrument Procedures

NOTE: All procedures below are presented as PDF files. If you need a reader for these files, you should download the free Adobe Reader.

NOT FOR NAVIGATION. Please procure official charts for flight.
FAA instrument procedures published for use between 4 January 2018 at 0901Z and 1 February 2018 at 0900Z.

 
IAPs - Instrument Approach Procedures
RNAV (GPS) RWY 36   download (199KB)
VOR/DME-A   download (155KB)
NOTE: Special Alternate Minimums apply   download (39KB)
NOTE: Special Take-Off Minimums/Departure Procedures apply   download (147KB)

Other nearby airports with instrument procedures:

1K1 - Lloyd Stearman Field Airport (6 nm N)
KBEC - Beech Factory Airport (7 nm W)
KAAO - Colonel James Jabara Airport (8 nm NW)
KCEA - Cessna Aircraft Field Airport (8 nm W)
KIAB - Mc Connell Air Force Base (9 nm W)
KEQA - El Dorado/Captain Jack Thomas Memorial Airport (14 nm NE)
KICT - Wichita Dwight D Eisenhower National Airport (17 nm W)
 
Loc | Ops | Rwys | IFR | FBO | Links
Com | Nav | Svcs | Stats | Notes

Kansas City Aviation Department
 
Area around 3AU (Augusta Municipal Airport)
 
Road maps at: MapQuest Bing Google
 
Aerial photo
WARNING: Photo may not be current or correct
Aerial photo of 3AU (Augusta Municipal Airport)
Photo taken 27-Aug-2009

Do you have a better or more recent aerial photo of Augusta Municipal Airport that you would like to share? If so, please send us your photo.

 
Sectional chart

 
Airport diagram
CAUTION: Diagram may not be current
Diagram of 3AU (Augusta Municipal Airport)
 
Airport distance calculator
Flying to Augusta Municipal Airport? Find the distance to fly.

From to 3AU

Sunrise and sunset
Times for 22-Jan-2018
 Local
(UTC-6)
 Zulu
(UTC)
Morning civil twilight07:1213:12
Sunrise07:4013:40
Sunset17:4023:40
Evening civil twilight18:0800:08

Current date and time
Zulu (UTC)  22-Jan-2018 11:09:57
Local (UTC-6)  22-Jan-2018 05:09:57
 
METAR
K3AU 221055Z AUTO 23011G19KT 10SM OVC023 02/00 A2951 RMK AO2
K1K1 
6nm N 
221050Z AUTO 26012G21KT 10SM OVC021 02/M01 A2950 RMK AO2 T00231010
KBEC 
7nm W 
221055Z AUTO 24017G22KT 10SM OVC021 03/M01 A2950 RMK AO2 T00281012
KAAO 
8nm NW 
221054Z AUTO 24014G23KT 10SM OVC021 03/M01 A2949 RMK AO2 SLP987 T00281006 $
KIAB 
10nm W 
221056Z AUTO 25015G25KT 10SM OVC022 03/M02 A2950 RMK AO2 SLP992 T00321017
KEQA 
14nm NE 
221055Z AUTO 24015G20KT 10SM OVC023 03/00 A2949 RMK AO2
KICT 
17nm W 
221053Z 25015G23KT 10SM OVC025 03/M01 A2951 RMK AO2 SLP990 T00331006
TAF
KIAB 
10nm W 
221000Z 2210/2316 29012KT 9999 OVC030 510509 QNH2950INS BECMG 2213/2214 30012G18KT 9999 OVC025 620809 QNH2955INS BECMG 2216/2217 32020G40KT 1600 -SN OVC015 620209 540005 QNH2960INS BECMG 2222/2223 31015G25KT 9999 NSW OVC050 QNH2978INS BECMG 2303/2304 30012KT 9999 SKC WS020/32030KT QNH2982INS BECMG 2312/2313 30009KT 9999 SKC QNH3005INS TX05/2221Z TNM01/2310Z
KICT 
17nm W 
220522Z 2206/2306 26010KT P6SM BKN120 FM220800 24013G19KT P6SM OVC020 FM221300 30020G30KT 6SM -SN OVC015 FM221500 31026G37KT 4SM -SN OVC015 FM222000 31026G37KT P6SM OVC030 FM230000 32019G27KT P6SM BKN100
NOTAMs
Click for the latest NOTAMs
NOTAMs are issued by the DoD/FAA and will open in a separate window not controlled by AirNav.

 

 
 

FBO, Fuel Providers, and Aircraft Ground Support

  
 Business Name 
 
 Contact 
 
 Services / Description 
 
Fuel Prices
 
Comments
  
Augusta Municipal Airport UNICOM 122.80
316-733-1326
316-733-1327
[web site]
[email]
Augusta Municipal Airport offers ALL the amenities that larger FBO's and Airports do, but without the hassle of the Big City delays, Access issues and headaches! Augusta Municipal is close to downtown Wichita, with established crew rates for Hotels, on demand catering and on site rental and crew cars. Augusta offers quick turn around for aircraft seeking to Gas and Go! Come check us out! You'll be glad you did. www.flyaugustaks.com
More info and photos of Augusta Municipal Airport
 
AirBoss™ fuel program   WSI Pilotbrief   WingPoints™ Rewards   Courtesy car  
 
Phillips 66
100LL Jet A
FS --- $3.54 
SS $4.45 --- 
GUARANTEED
AirBossMEMBER
PRICING
FS --- $3.36 
 
   5 read write
FS=Full service
SS=Self service
Update Fuel Prices
 

Would you like to see your business listed on this page?

 If your business provides an interesting product or service to pilots, flight crews, aircraft, or users of the Augusta Municipal Airport, you should consider listing it here.  To start the listing process, click on the button below
 
Add a business
 

Other Pages about Augusta Municipal Airport

www.flyaugustaks.com
www.augustagov.org/...
 
Update a link
 
Copyright © AirNav, LLC. All rights reserved. Privacy Policy  Contact